Portland, OR

6:29 AM PDT on April 22, 2018 (GMT -0700)
Portland International

Weather History for KPDX - February, 2013

Change the Weather History Date:

Tuesday, February 26, 2013

  Actual Average Record
Temperature  
Mean Temperature 43 °F 45 °F  
Max Temperature 49 °F 53 °F 68 °F (1968)
Min Temperature 37 °F 37 °F 18 °F (2011)
Degree Days  
Heating Degree Days 22 20  
Month to date heating degree days 539 554  
Since 1 July heating degree days 2867 3018  
Cooling Degree Days 0 0  
Month to date cooling degree days 0 0  
Year to date cooling degree days 0 0  
Moisture  
Dew Point 35 °F    
Average Humidity 74    
Maximum Humidity 92    
Minimum Humidity 56    
Precipitation  
Precipitation 0.00 in 0.13 in 0.73 in (2000)
Month to date precipitation 1.01 3.40  
Year to date precipitation 4.50 8.28  
Snow  
Snow 0.00 in - 0.80 in (1955)
Month to date snowfall 0.0  
Since 1 July snowfall 0.0  
Snow Depth 0.00 in    
Sea Level Pressure  
Sea Level Pressure 30.34 in    
Wind  
Wind Speed 5 mph (ESE)    
Max Wind Speed 15 mph    
Max Gust Speed 18 mph    
Visibility 10 miles    
Events      
T = Trace of Precipitation, MM = Missing Value Source: NWS Daily Summary

Daily Weather History Graph

Daily Weather History Graph

Search for Another Location

Airport or City:

Astronomy

Feb. 26, 2013 Rise Set
Actual Time 6:53 AM PST 5:53 PM PST
Civil Twilight 6:23 AM PST 6:23 PM PST
Nautical Twilight 5:49 AM PST 6:57 PM PST
Astronomical Twilight 5:14 AM PST 7:32 PM PST
Moon 7:23 PM PST (2/26) 6:53 AM PST (2/26)
Length of Visible Light 11h 59m
Length of Day
11h 00m
Full, 99% of the Moon is Illuminated
Feb 26
Full
Mar 4
Last Quarter
Mar 11
New
Mar 19
First Quarter
Mar 27
Full

Hourly Weather History & Observations

Time (PST) Temp. Windchill Dew Point Humidity Pressure Visibility Wind Dir Wind Speed Gust Speed Precip Events Conditions
12:53 AM 39.9 °F - 35.1 °F 83% 30.40 in 10.0 mi Calm Calm - N/A   Overcast
1:53 AM 37.9 °F 34.4 °F 34.0 °F 86% 30.39 in 10.0 mi SSE 4.6 mph - N/A   Mostly Cloudy
2:53 AM 39.0 °F 36.8 °F 35.1 °F 86% 30.39 in 10.0 mi Variable 3.5 mph - N/A   Overcast
3:53 AM 37.4 °F 34.9 °F 35.6 °F 93% 30.40 in 10.0 mi SSE 3.5 mph - N/A   Overcast
4:53 AM 37.9 °F 35.5 °F 35.1 °F 89% 30.40 in 10.0 mi SSE 3.5 mph - N/A   Overcast
5:53 AM 37.9 °F - 34.0 °F 86% 30.41 in 10.0 mi Calm Calm - N/A   Overcast
6:53 AM 37.0 °F - 34.0 °F 89% 30.40 in 10.0 mi Calm Calm - N/A   Mostly Cloudy
7:53 AM 37.9 °F 33.5 °F 35.1 °F 89% 30.40 in 10.0 mi SE 5.8 mph - N/A   Mostly Cloudy
8:53 AM 41.0 °F 36.4 °F 37.0 °F 86% 30.39 in 10.0 mi East 6.9 mph - N/A   Mostly Cloudy
9:53 AM 42.1 °F 39.2 °F 36.0 °F 79% 30.39 in 10.0 mi South 4.6 mph - N/A   Overcast
10:53 AM 44.1 °F 41.5 °F 36.0 °F 73% 30.38 in 10.0 mi NW 4.6 mph - N/A   Overcast
11:34 AM 44.6 °F - 35.6 °F 71% 30.37 in 10.0 mi Calm Calm - N/A   Overcast
11:53 AM 44.1 °F - 36.0 °F 73% 30.37 in 10.0 mi Calm Calm - N/A   Overcast
12:53 PM 46.0 °F 43.1 °F 35.1 °F 66% 30.35 in 10.0 mi NNW 5.8 mph - N/A   Mostly Cloudy
1:53 PM 46.9 °F - 35.1 °F 63% 30.30 in 10.0 mi East 9.2 mph - N/A   Mostly Cloudy
2:53 PM 48.0 °F - 34.0 °F 58% 30.29 in 10.0 mi East 9.2 mph - N/A   Mostly Cloudy
3:53 PM 48.0 °F - 34.0 °F 58% 30.28 in 10.0 mi East 9.2 mph - N/A   Overcast
4:53 PM 46.9 °F - 34.0 °F 61% 30.28 in 10.0 mi East 4.6 mph - N/A   Overcast
5:53 PM 46.0 °F 43.1 °F 34.0 °F 63% 30.29 in 10.0 mi ESE 5.8 mph - N/A   Overcast
6:53 PM 46.0 °F 41.4 °F 35.1 °F 66% 30.26 in 10.0 mi ESE 9.2 mph - N/A   Overcast
7:53 PM 45.0 °F 40.1 °F 35.1 °F 68% 30.27 in 10.0 mi ESE 9.2 mph - N/A   Overcast
8:53 PM 45.0 °F 42.6 °F 36.0 °F 71% 30.27 in 10.0 mi East 4.6 mph - N/A   Overcast
9:53 PM 44.1 °F 39.0 °F 37.0 °F 76% 30.27 in 10.0 mi ESE 9.2 mph - N/A   Overcast
10:53 PM 44.1 °F 40.8 °F 37.9 °F 79% 30.27 in 10.0 mi East 5.8 mph - N/A   Overcast
11:53 PM 43.0 °F 37.7 °F 37.9 °F 82% 30.28 in 10.0 mi ESE 9.2 mph - N/A   Overcast